Time,TemperatureF,DewpointF,PressureIn,WindDirection,WindDirectionDegrees,WindSpeedMPH,WindSpeedGustMPH,Humidity,HourlyPrecipIn,Conditions,Clouds,dailyrainin,SoftwareType,DateUTC
2013-04-08 00:00:00,71.2,62.5,29.68,ESE,112,0.0,1.0,74,0.00,CLR,CLR,0.00,WeatherDisplay:10.37,2013-04-08 04:00:00,
2013-04-08 00:30:00,70.2,61.9,29.68,ESE,109,0.0,5.0,75,0.00,CLR,CLR,0.00,WeatherDisplay:10.37,2013-04-08 04:30:00,
2013-04-08 01:00:00,69.4,61.5,29.68,SE,135,0.0,5.0,76,0.00,CLR,CLR,0.00,WeatherDisplay:10.37,2013-04-08 05:00:00,
2013-04-08 01:30:00,68.7,61.2,29.67,SE,126,0.0,4.0,77,0.00,CLR,CLR,0.00,WeatherDisplay:10.37,2013-04-08 05:30:00,
2013-04-08 02:00:00,68.2,61.4,29.67,ESE,111,0.0,0.0,79,0.00,CLR,CLR,0.00,WeatherDisplay:10.37,2013-04-08 06:00:00,
2013-04-08 02:30:00,67.6,61.2,29.66,SE,126,0.0,0.0,80,0.00,CLR,CLR,0.00,WeatherDisplay:10.37,2013-04-08 06:30:00,
2013-04-08 03:00:00,67.6,61.2,29.65,SE,135,0.0,1.0,80,0.00,CLR,CLR,0.00,WeatherDisplay:10.37,2013-04-08 07:00:00,
2013-04-08 03:30:00,67.6,60.9,29.64,ESE,121,0.0,0.0,79,0.00,CLR,CLR,0.00,WeatherDisplay:10.37,2013-04-08 07:30:00,
2013-04-08 04:00:00,66.9,60.9,29.63,ESE,106,0.0,3.0,81,0.00,CLR,CLR,0.00,WeatherDisplay:10.37,2013-04-08 08:00:00,
2013-04-08 04:30:00,66.0,60.4,29.63,ESE,112,0.0,0.0,82,0.00,CLR,CLR,0.00,WeatherDisplay:10.37,2013-04-08 08:30:00,
2013-04-08 05:00:00,65.1,59.8,29.63,ESE,112,0.0,0.0,83,0.00,CLR,CLR,0.00,WeatherDisplay:10.37,2013-04-08 09:00:00,
2013-04-08 05:30:00,64.8,59.8,29.63,ESE,108,0.0,0.0,84,0.00,CLR,CLR,0.00,WeatherDisplay:10.37,2013-04-08 09:30:00,
2013-04-08 06:00:00,64.6,60.0,29.64,ESE,108,0.0,0.0,85,0.00,CLR,CLR,0.00,WeatherDisplay:10.37,2013-04-08 10:00:00,
2013-04-08 06:30:00,64.0,59.8,29.65,ESE,108,0.0,0.0,86,0.00,CLR,CLR,0.00,WeatherDisplay:10.37,2013-04-08 10:30:00,
2013-04-08 07:00:00,64.0,59.8,29.65,East,101,0.0,0.0,86,0.00,CLR,CLR,0.00,WeatherDisplay:10.37,2013-04-08 11:00:00,
2013-04-08 07:30:00,63.7,59.7,29.67,ESE,112,0.0,0.0,87,0.00,CLR,CLR,0.00,WeatherDisplay:10.37,2013-04-08 11:30:00,
2013-04-08 08:00:00,64.4,60.4,29.67,SE,126,0.0,0.0,87,0.00,CLR,CLR,0.00,WeatherDisplay:10.37,2013-04-08 12:00:00,
2013-04-08 08:30:00,66.0,61.4,29.69,ESE,113,0.0,0.0,85,0.00,CLR,CLR,0.00,WeatherDisplay:10.37,2013-04-08 12:30:00,
2013-04-08 09:00:00,68.7,62.3,29.69,SE,126,1.0,1.0,80,0.00,CLR,CLR,0.00,WeatherDisplay:10.37,2013-04-08 13:00:00,
2013-04-08 09:30:00,71.2,63.3,29.70,ESE,122,0.0,4.0,76,0.00,CLR,CLR,0.00,WeatherDisplay:10.37,2013-04-08 13:30:00,
2013-04-08 10:00:00,73.0,62.3,29.70,SE,128,1.0,4.0,69,0.00,CLR,CLR,0.00,WeatherDisplay:10.37,2013-04-08 14:00:00,
2013-04-08 10:30:00,75.7,62.2,29.70,SE,132,2.0,6.0,63,0.00,CLR,CLR,0.00,WeatherDisplay:10.37,2013-04-08 14:30:00,
2013-04-08 11:00:00,78.4,61.9,29.71,ESE,116,0.0,4.0,57,0.00,CLR,CLR,0.00,WeatherDisplay:10.37,2013-04-08 15:00:00,
2013-04-08 11:30:00,80.4,61.2,29.70,East,90,0.0,8.0,52,0.00,CLR,CLR,0.00,WeatherDisplay:10.37,2013-04-08 15:30:00,
2013-04-08 12:00:00,82.0,59.8,29.71,SE,131,1.0,4.0,47,0.00,CLR,CLR,0.00,WeatherDisplay:10.37,2013-04-08 16:00:00,
2013-04-08 12:30:00,82.9,60.0,29.70,ENE,69,0.0,8.0,46,0.00,CLR,CLR,0.00,WeatherDisplay:10.37,2013-04-08 16:30:00,
2013-04-08 13:00:00,83.7,60.1,29.69,SE,129,0.0,6.0,45,0.00,CLR,CLR,0.00,WeatherDisplay:10.37,2013-04-08 17:00:00,
2013-04-08 13:30:00,83.1,58.9,29.67,SSE,157,0.0,6.0,44,0.00,CLR,CLR,0.00,WeatherDisplay:10.37,2013-04-08 17:30:00,
2013-04-08 14:00:00,84.0,59.1,29.66,East,84,3.0,3.0,43,0.00,CLR,CLR,0.00,WeatherDisplay:10.37,2013-04-08 18:00:00,
2013-04-08 14:30:00,84.6,59.6,29.66,SSE,148,0.0,5.0,43,0.00,CLR,CLR,0.00,WeatherDisplay:10.37,2013-04-08 18:30:00,
2013-04-08 15:00:00,85.3,59.6,29.65,NNE,28,0.0,6.0,42,0.00,CLR,CLR,0.00,WeatherDisplay:10.37,2013-04-08 19:00:00,
2013-04-08 15:30:00,83.3,57.1,29.64,ESE,119,0.0,4.0,41,0.00,CLR,CLR,0.00,WeatherDisplay:10.37,2013-04-08 19:30:00,
2013-04-08 16:00:00,81.5,63.3,29.63,WSW,252,0.0,0.0,54,0.00,CLR,CLR,0.00,WeatherDisplay:10.37,2013-04-08 20:00:00,
2013-04-08 16:30:00,81.3,63.6,29.63,WNW,295,1.0,2.0,55,0.00,CLR,CLR,0.00,WeatherDisplay:10.37,2013-04-08 20:30:00,
2013-04-08 17:00:00,80.4,62.8,29.62,WSW,250,1.0,3.0,55,0.00,CLR,CLR,0.00,WeatherDisplay:10.37,2013-04-08 21:00:00,
2013-04-08 17:30:00,80.2,63.6,29.62,NW,324,0.0,5.0,57,0.00,CLR,CLR,0.00,WeatherDisplay:10.37,2013-04-08 21:30:00,
2013-04-08 18:00:00,77.5,62.6,29.64,WSW,252,0.0,0.0,60,0.00,CLR,CLR,0.00,WeatherDisplay:10.37,2013-04-08 22:00:00,
2013-04-08 18:30:00,76.3,63.2,29.64,West,261,0.0,0.0,64,0.00,CLR,CLR,0.00,WeatherDisplay:10.37,2013-04-08 22:30:00,
2013-04-08 19:00:00,75.6,63.4,29.64,WSW,252,0.0,0.0,66,0.00,CLR,CLR,0.00,WeatherDisplay:10.37,2013-04-08 23:00:00,
2013-04-08 19:30:00,74.5,62.4,29.64,WSW,248,0.0,0.0,66,0.00,CLR,CLR,0.00,WeatherDisplay:10.37,2013-04-08 23:30:00,
2013-04-08 20:00:00,73.2,62.4,29.64,SW,225,0.0,0.0,69,0.00,CLR,CLR,0.00,WeatherDisplay:10.37,2013-04-09 00:00:00,
2013-04-08 20:30:00,72.3,62.8,29.65,SW,225,0.0,0.0,72,0.00,CLR,CLR,0.00,WeatherDisplay:10.37,2013-04-09 00:30:00,
2013-04-08 21:00:00,71.4,62.3,29.66,WNW,292,0.0,0.0,73,0.00,CLR,CLR,0.00,WeatherDisplay:10.37,2013-04-09 01:00:00,
2013-04-08 21:30:00,71.1,63.1,29.67,WNW,292,0.0,0.0,76,0.00,CLR,CLR,0.00,WeatherDisplay:10.37,2013-04-09 01:30:00,
2013-04-08 22:00:00,70.2,63.0,29.68,WNW,292,0.0,0.0,78,0.00,CLR,CLR,0.00,WeatherDisplay:10.37,2013-04-09 02:00:00,
2013-04-08 22:30:00,69.6,62.8,29.69,NNE,22,0.0,0.0,79,0.00,CLR,CLR,0.00,WeatherDisplay:10.37,2013-04-09 02:30:00,
2013-04-08 23:00:00,68.7,62.7,29.69,ENE,78,0.0,0.0,81,0.00,CLR,CLR,0.00,WeatherDisplay:10.37,2013-04-09 03:00:00,
2013-04-08 23:30:00,68.5,63.2,29.70,ESE,112,0.0,0.0,83,0.00,CLR,CLR,0.00,WeatherDisplay:10.37,2013-04-09 03:30:00,